Location: Ravensburg
(47.7866°N, 9.6124°E)
Time: 06:47:18
(UTC+02:00)

METEOR M2 - Pass Details

Date: 18 March 2026
Orbit: 817 x 824 km, 98.5° (Epoch: 15 April)

Event Time Altitude Azimuth Distance (km) Brightness Sun altitude
Rises 04:37:12 0° 16° (NNE) 3,373 ? -19.2°
Reaches altitude 10° 04:39:35 10° 19° (NNE) 2,436 ? -18.8°
Maximum altitude 04:44:58 68° 102° (ESE) 889 ? -18.0°
Drops below altitude 10° 04:50:18 10° 186° (S) 2,416 ? -17.1°
Sets 04:52:39 0° 189° (S) 3,344 ? -16.8°
